Time,TemperatureF,DewpointF,PressureIn,WindDirection,WindDirectionDegrees,WindSpeedMPH,WindSpeedGustMPH,Humidity,HourlyPrecipIn,Conditions,Clouds,dailyrainin,SoftwareType,DateUTC
2013-04-24 00:05:00,39.0,37.7,29.53,NNW,337,0.0,6.0,95,0.00,,,0.00,Weather View 32 v70,2013-04-24 04:05:00,
2013-04-24 00:10:00,39.0,37.7,29.54,NNW,337,1.0,6.0,95,0.00,,,0.00,Weather View 32 v70,2013-04-24 04:10:00,
2013-04-24 00:15:00,39.0,37.4,29.53,NNW,337,1.0,6.0,94,0.00,,,0.00,Weather View 32 v70,2013-04-24 04:15:00,
2013-04-24 00:20:00,38.0,36.7,29.53,NNW,337,2.0,4.0,95,0.00,,,0.00,Weather View 32 v70,2013-04-24 04:20:00,
2013-04-24 00:25:00,38.0,36.7,29.53,NNW,337,0.0,4.0,95,0.00,,,0.00,Weather View 32 v70,2013-04-24 04:25:00,
2013-04-24 00:30:00,38.0,37.0,29.53,NNW,337,0.0,4.0,96,0.00,,,0.00,Weather View 32 v70,2013-04-24 04:30:00,
2013-04-24 00:35:00,38.0,37.0,29.53,NNW,337,0.0,4.0,96,0.00,,,0.00,Weather View 32 v70,2013-04-24 04:35:00,
2013-04-24 00:40:00,38.0,37.0,29.53,NNW,337,1.0,4.0,96,0.00,,,0.00,Weather View 32 v70,2013-04-24 04:40:00,
2013-04-24 00:45:00,38.0,37.0,29.53,NNW,337,0.0,4.0,96,0.00,,,0.00,Weather View 32 v70,2013-04-24 04:45:00,
2013-04-24 00:50:00,37.0,36.0,29.53,NNW,337,2.0,4.0,96,0.00,,,0.00,Weather View 32 v70,2013-04-24 04:50:00,
2013-04-24 00:55:00,37.0,35.7,29.53,NNW,337,1.0,4.0,95,0.00,,,0.00,Weather View 32 v70,2013-04-24 04:55:00,
2013-04-24 01:00:00,37.0,36.0,29.53,SW,225,3.0,5.0,96,0.00,,,0.00,Weather View 32 v70,2013-04-24 05:00:00,
2013-04-24 01:05:00,38.0,37.0,29.53,SW,225,0.0,5.0,96,0.00,,,0.00,Weather View 32 v70,2013-04-24 05:05:00,
2013-04-24 01:10:00,37.0,35.4,29.53,SW,225,0.0,5.0,94,0.00,,,0.00,Weather View 32 v70,2013-04-24 05:10:00,
2013-04-24 01:15:00,37.0,35.2,29.53,NNE,22,4.0,5.0,93,0.00,,,0.00,Weather View 32 v70,2013-04-24 05:15:00,
2013-04-24 01:20:00,37.0,34.1,29.53,NNE,22,1.0,5.0,89,0.00,,,0.00,Weather View 32 v70,2013-04-24 05:20:00,
2013-04-24 01:25:00,37.0,34.6,29.53,NNE,22,0.0,5.0,91,0.00,,,0.00,Weather View 32 v70,2013-04-24 05:25:00,
2013-04-24 01:30:00,37.0,34.3,29.52,NNE,22,0.0,5.0,90,0.00,,,0.00,Weather View 32 v70,2013-04-24 05:30:00,
2013-04-24 01:40:00,37.0,35.2,29.52,NNE,22,1.0,5.0,93,0.00,,,0.00,Weather View 32 v70,2013-04-24 05:40:00,
2013-04-24 01:45:00,37.0,34.6,29.52,NNE,22,2.0,5.0,91,0.00,,,0.00,Weather View 32 v70,2013-04-24 05:45:00,
2013-04-24 01:55:00,36.0,34.4,29.51,NNE,22,0.0,5.0,94,0.00,,,0.00,Weather View 32 v70,2013-04-24 05:55:00,
2013-04-24 02:00:00,36.0,33.6,29.51,NNE,22,0.0,5.0,91,0.00,,,0.00,Weather View 32 v70,2013-04-24 06:00:00,
2013-04-24 02:10:00,36.0,32.5,29.51,NNE,22,3.0,5.0,87,0.00,,,0.00,Weather View 32 v70,2013-04-24 06:10:00,
2013-04-24 02:15:00,36.0,31.9,29.51,NNE,22,2.0,5.0,85,0.00,,,0.00,Weather View 32 v70,2013-04-24 06:15:00,
2013-04-24 02:20:00,37.0,31.1,29.51,NNE,22,2.0,5.0,79,0.00,,,0.00,Weather View 32 v70,2013-04-24 06:20:00,
2013-04-24 02:30:00,37.0,34.6,29.50,WSW,247,1.0,6.0,91,0.00,,,0.00,Weather View 32 v70,2013-04-24 06:30:00,
2013-04-24 02:40:00,36.0,32.5,29.50,WSW,247,0.0,6.0,87,0.00,,,0.00,Weather View 32 v70,2013-04-24 06:40:00,
2013-04-24 02:45:00,36.0,31.0,29.50,WSW,247,0.0,6.0,82,0.00,,,0.00,Weather View 32 v70,2013-04-24 06:45:00,
2013-04-24 02:50:00,36.0,31.3,29.50,WSW,247,0.0,6.0,83,0.00,,,0.00,Weather View 32 v70,2013-04-24 06:50:00,
2013-04-24 02:55:00,36.0,31.6,29.50,WSW,247,0.0,6.0,84,0.00,,,0.00,Weather View 32 v70,2013-04-24 06:55:00,
2013-04-24 03:00:00,36.0,31.6,29.50,NNW,337,3.0,6.0,84,0.00,,,0.00,Weather View 32 v70,2013-04-24 07:00:00,
2013-04-24 03:05:00,36.0,30.4,29.50,North,360,3.0,6.0,80,0.00,,,0.00,Weather View 32 v70,2013-04-24 07:05:00,
2013-04-24 03:10:00,36.0,32.2,29.49,West,270,1.0,6.0,86,0.00,,,0.00,Weather View 32 v70,2013-04-24 07:10:00,
2013-04-24 03:15:00,36.0,31.6,29.49,WSW,247,0.0,6.0,84,0.00,,,0.00,Weather View 32 v70,2013-04-24 07:15:00,
2013-04-24 03:20:00,36.0,31.9,29.49,WSW,247,0.0,6.0,85,0.00,,,0.00,Weather View 32 v70,2013-04-24 07:20:00,
2013-04-24 03:25:00,35.0,30.9,29.49,WSW,247,0.0,6.0,85,0.00,,,0.00,Weather View 32 v70,2013-04-24 07:25:00,
2013-04-24 03:30:00,35.0,30.7,29.49,WSW,247,0.0,5.0,84,0.00,,,0.00,Weather View 32 v70,2013-04-24 07:30:00,
2013-04-24 03:35:00,35.0,31.2,29.49,NNW,337,0.0,5.0,86,0.00,,,0.00,Weather View 32 v70,2013-04-24 07:35:00,
2013-04-24 03:40:00,35.0,30.4,29.49,NNW,337,0.0,5.0,83,0.00,,,0.00,Weather View 32 v70,2013-04-24 07:40:00,
2013-04-24 03:45:00,35.0,29.8,29.49,NNW,337,0.0,5.0,81,0.00,,,0.00,Weather View 32 v70,2013-04-24 07:45:00,
2013-04-24 03:50:00,35.0,30.7,29.49,NNW,337,0.0,5.0,84,0.00,,,0.00,Weather View 32 v70,2013-04-24 07:50:00,
2013-04-24 03:55:00,35.0,30.1,29.48,NNW,337,1.0,5.0,82,0.00,,,0.00,Weather View 32 v70,2013-04-24 07:55:00,
2013-04-24 04:00:00,35.0,30.1,29.48,NNW,337,0.0,5.0,82,0.00,,,0.00,Weather View 32 v70,2013-04-24 08:00:00,
2013-04-24 04:05:00,35.0,29.5,29.48,NNW,337,0.0,4.0,80,0.00,,,0.00,Weather View 32 v70,2013-04-24 08:05:00,
2013-04-24 04:10:00,35.0,29.1,29.48,NNW,337,0.0,4.0,79,0.00,,,0.00,Weather View 32 v70,2013-04-24 08:10:00,
2013-04-24 04:15:00,35.0,27.5,29.48,NNW,337,0.0,2.0,74,0.00,,,0.00,Weather View 32 v70,2013-04-24 08:15:00,
2013-04-24 04:20:00,35.0,27.5,29.48,NNW,337,0.0,2.0,74,0.00,,,0.00,Weather View 32 v70,2013-04-24 08:20:00,
2013-04-24 04:25:00,35.0,26.5,29.48,NNW,337,0.0,2.0,71,0.00,,,0.00,Weather View 32 v70,2013-04-24 08:25:00,
2013-04-24 04:30:00,36.0,27.5,29.48,NNW,337,0.0,2.0,71,0.00,,,0.00,Weather View 32 v70,2013-04-24 08:30:00,
2013-04-24 04:35:00,36.0,27.5,29.48,NNW,337,0.0,2.0,71,0.00,,,0.00,Weather View 32 v70,2013-04-24 08:35:00,
2013-04-24 04:40:00,36.0,28.2,29.47,NNW,337,0.0,2.0,73,0.00,,,0.00,Weather View 32 v70,2013-04-24 08:40:00,
2013-04-24 04:45:00,36.0,27.8,29.47,NNW,337,0.0,2.0,72,0.00,,,0.00,Weather View 32 v70,2013-04-24 08:45:00,
2013-04-24 04:50:00,36.0,28.5,29.47,NNW,337,0.0,2.0,74,0.00,,,0.00,Weather View 32 v70,2013-04-24 08:50:00,
2013-04-24 04:55:00,36.0,28.5,29.48,NNW,337,0.0,2.0,74,0.00,,,0.00,Weather View 32 v70,2013-04-24 08:55:00,
2013-04-24 05:00:00,36.0,28.8,29.48,NNW,337,1.0,2.0,75,0.00,,,0.00,Weather View 32 v70,2013-04-24 09:00:00,
2013-04-24 05:05:00,36.0,28.5,29.48,NNW,337,0.0,4.0,74,0.00,,,0.00,Weather View 32 v70,2013-04-24 09:05:00,
2013-04-24 05:15:00,36.0,26.1,29.48,NNW,337,0.0,4.0,67,0.00,,,0.00,Weather View 32 v70,2013-04-24 09:15:00,
2013-04-24 05:20:00,36.0,26.1,29.48,NNW,337,0.0,4.0,67,0.00,,,0.00,Weather View 32 v70,2013-04-24 09:20:00,
2013-04-24 05:25:00,36.0,26.5,29.48,NNW,337,0.0,4.0,68,0.00,,,0.00,Weather View 32 v70,2013-04-24 09:25:00,
2013-04-24 05:30:00,36.0,26.8,29.48,NNW,337,0.0,4.0,69,0.00,,,0.00,Weather View 32 v70,2013-04-24 09:30:00,
2013-04-24 05:35:00,36.0,27.8,29.47,NNW,337,2.0,4.0,72,0.00,,,0.00,Weather View 32 v70,2013-04-24 09:35:00,
2013-04-24 05:40:00,36.0,29.2,29.47,West,270,3.0,4.0,76,0.00,,,0.00,Weather View 32 v70,2013-04-24 09:40:00,
2013-04-24 05:45:00,36.0,29.8,29.47,West,270,0.0,4.0,78,0.00,,,0.00,Weather View 32 v70,2013-04-24 09:45:00,
2013-04-24 05:50:00,36.0,29.2,29.47,West,270,0.0,4.0,76,0.00,,,0.00,Weather View 32 v70,2013-04-24 09:50:00,
2013-04-24 05:55:00,36.0,28.2,29.47,West,270,0.0,4.0,73,0.00,,,0.00,Weather View 32 v70,2013-04-24 09:55:00,
2013-04-24 06:00:00,36.0,27.8,29.47,NW,315,0.0,4.0,72,0.00,,,0.00,Weather View 32 v70,2013-04-24 10:00:00,
2013-04-24 06:05:00,36.0,27.5,29.47,NW,315,1.0,4.0,71,0.00,,,0.00,Weather View 32 v70,2013-04-24 10:05:00,
2013-04-24 06:10:00,36.0,26.5,29.47,NW,315,0.0,4.0,68,0.00,,,0.00,Weather View 32 v70,2013-04-24 10:10:00,
2013-04-24 06:15:00,36.0,27.2,29.47,NW,315,0.0,4.0,70,0.00,,,0.00,Weather View 32 v70,2013-04-24 10:15:00,
2013-04-24 06:25:00,36.0,27.5,29.47,NW,315,0.0,4.0,71,0.00,,,0.00,Weather View 32 v70,2013-04-24 10:25:00,
2013-04-24 06:30:00,35.0,24.8,29.47,NW,315,0.0,4.0,66,0.00,,,0.00,Weather View 32 v70,2013-04-24 10:30:00,
2013-04-24 06:35:00,35.0,25.1,29.47,NW,315,1.0,4.0,67,0.00,,,0.00,Weather View 32 v70,2013-04-24 10:35:00,
2013-04-24 06:40:00,36.0,25.4,29.47,NW,315,0.0,4.0,65,0.00,,,0.00,Weather View 32 v70,2013-04-24 10:40:00,
2013-04-24 06:45:00,36.0,25.0,29.47,NW,315,0.0,3.0,64,0.00,,,0.00,Weather View 32 v70,2013-04-24 10:45:00,
2013-04-24 06:50:00,36.0,24.6,29.47,NW,315,0.0,3.0,63,0.00,,,0.00,Weather View 32 v70,2013-04-24 10:50:00,
2013-04-24 06:55:00,36.0,22.6,29.47,NW,315,0.0,3.0,58,0.00,,,0.00,Weather View 32 v70,2013-04-24 10:55:00,
2013-04-24 07:00:00,36.0,22.6,29.47,NW,315,0.0,3.0,58,0.00,,,0.00,Weather View 32 v70,2013-04-24 11:00:00,
2013-04-24 07:05:00,36.0,24.6,29.47,NW,315,0.0,3.0,63,0.00,,,0.00,Weather View 32 v70,2013-04-24 11:05:00,
2013-04-24 07:10:00,37.0,24.8,29.47,NW,315,0.0,3.0,61,0.00,,,0.00,Weather View 32 v70,2013-04-24 11:10:00,
2013-04-24 07:15:00,37.0,24.8,29.47,NW,315,1.0,3.0,61,0.00,,,0.00,Weather View 32 v70,2013-04-24 11:15:00,
2013-04-24 07:20:00,38.0,26.9,29.47,NW,315,0.0,3.0,64,0.00,,,0.00,Weather View 32 v70,2013-04-24 11:20:00,
2013-04-24 07:30:00,39.0,25.9,29.47,NW,315,0.0,3.0,59,0.00,,,0.00,Weather View 32 v70,2013-04-24 11:30:00,
2013-04-24 07:35:00,40.0,26.4,29.47,NW,315,0.0,3.0,58,0.00,,,0.00,Weather View 32 v70,2013-04-24 11:35:00,
2013-04-24 07:40:00,41.0,27.8,29.47,NW,315,0.0,3.0,59,0.00,,,0.00,Weather View 32 v70,2013-04-24 11:40:00,
2013-04-24 07:45:00,41.0,30.1,29.47,NW,315,0.0,3.0,65,0.00,,,0.00,Weather View 32 v70,2013-04-24 11:45:00,
2013-04-24 07:50:00,41.0,30.5,29.47,NW,315,0.0,3.0,66,0.00,,,0.00,Weather View 32 v70,2013-04-24 11:50:00,
2013-04-24 07:55:00,42.0,32.6,29.46,WNW,292,0.0,3.0,69,0.00,,,0.00,Weather View 32 v70,2013-04-24 11:55:00,
2013-04-24 08:00:00,42.0,29.1,29.46,WNW,292,0.0,3.0,60,0.00,,,0.00,Weather View 32 v70,2013-04-24 12:00:00,
2013-04-24 08:05:00,43.0,26.1,29.46,WNW,292,0.0,3.0,51,0.00,,,0.00,Weather View 32 v70,2013-04-24 12:05:00,
2013-04-24 08:10:00,43.0,25.1,29.46,WNW,292,0.0,3.0,49,0.00,,,0.00,Weather View 32 v70,2013-04-24 12:10:00,
2013-04-24 08:20:00,45.0,28.4,29.46,WNW,292,0.0,3.0,52,0.00,,,0.00,Weather View 32 v70,2013-04-24 12:20:00,
2013-04-24 08:25:00,46.0,31.2,29.46,WNW,292,0.0,3.0,56,0.00,,,0.00,Weather View 32 v70,2013-04-24 12:25:00,
2013-04-24 08:30:00,46.0,32.9,29.46,WNW,292,0.0,3.0,60,0.00,,,0.00,Weather View 32 v70,2013-04-24 12:30:00,
2013-04-24 08:35:00,46.0,33.3,29.46,WNW,292,0.0,3.0,61,0.00,,,0.00,Weather View 32 v70,2013-04-24 12:35:00,
2013-04-24 08:40:00,47.0,34.6,29.46,WNW,292,0.0,3.0,62,0.00,,,0.00,Weather View 32 v70,2013-04-24 12:40:00,
2013-04-24 08:45:00,47.0,35.4,29.46,WNW,292,0.0,3.0,64,0.00,,,0.00,Weather View 32 v70,2013-04-24 12:45:00,
2013-04-24 08:50:00,48.0,36.8,29.46,WNW,292,0.0,3.0,65,0.00,,,0.00,Weather View 32 v70,2013-04-24 12:50:00,
2013-04-24 08:55:00,49.0,39.6,29.46,WNW,292,0.0,3.0,70,0.00,,,0.00,Weather View 32 v70,2013-04-24 12:55:00,
2013-04-24 09:00:00,51.0,45.7,29.46,NE,45,2.0,4.0,82,0.00,,,0.00,Weather View 32 v70,2013-04-24 13:00:00,
2013-04-24 09:10:00,53.0,51.6,29.45,NE,45,3.0,5.0,95,0.00,,,0.00,Weather View 32 v70,2013-04-24 13:10:00,
2013-04-24 09:15:00,54.0,51.1,29.45,NE,45,2.0,7.0,90,0.00,,,0.00,Weather View 32 v70,2013-04-24 13:15:00,
2013-04-24 09:20:00,54.0,48.9,29.45,NE,45,6.0,7.0,83,0.00,,,0.00,Weather View 32 v70,2013-04-24 13:20:00,
2013-04-24 09:25:00,54.0,49.3,29.45,NE,45,4.0,7.0,84,0.00,,,0.00,Weather View 32 v70,2013-04-24 13:25:00,
2013-04-24 09:30:00,54.0,49.3,29.45,NE,45,1.0,8.0,84,0.00,,,0.00,Weather View 32 v70,2013-04-24 13:30:00,
2013-04-24 09:35:00,53.0,48.0,29.45,NE,45,8.0,10.0,83,0.00,,,0.00,Weather View 32 v70,2013-04-24 13:35:00,
2013-04-24 09:40:00,53.0,48.0,29.45,NE,45,6.0,10.0,83,0.00,,,0.00,Weather View 32 v70,2013-04-24 13:40:00,
2013-04-24 09:49:00,53.0,48.0,29.44,ENE,67,6.0,13.0,83,0.00,,,0.00,Weather View 32 v70,2013-04-24 13:49:00,
2013-04-24 09:55:00,51.0,47.6,29.44,East,90,7.0,17.0,88,0.00,,,0.00,Weather View 32 v70,2013-04-24 13:55:00,
2013-04-24 10:00:00,51.0,47.6,29.44,NE,45,9.0,17.0,88,0.00,,,0.00,Weather View 32 v70,2013-04-24 14:00:00,
2013-04-24 10:05:00,52.0,48.5,29.44,East,90,2.0,17.0,88,0.00,,,0.00,Weather View 32 v70,2013-04-24 14:05:00,
2013-04-24 10:10:00,53.0,48.9,29.44,ENE,67,3.0,17.0,86,0.00,,,0.00,Weather View 32 v70,2013-04-24 14:10:00,
2013-04-24 10:15:00,54.0,48.9,29.43,NE,45,6.0,17.0,83,0.00,,,0.00,Weather View 32 v70,2013-04-24 14:15:00,
2013-04-24 10:20:00,54.0,48.9,29.43,East,90,2.0,17.0,83,0.00,,,0.00,Weather View 32 v70,2013-04-24 14:20:00,
2013-04-24 10:25:00,54.0,48.9,29.43,SE,135,1.0,17.0,83,0.00,,,0.00,Weather View 32 v70,2013-04-24 14:25:00,
2013-04-24 10:35:00,56.0,50.2,29.43,SE,135,4.0,17.0,81,0.00,,,0.00,Weather View 32 v70,2013-04-24 14:35:00,
2013-04-24 10:40:00,56.0,48.9,29.43,ENE,67,10.0,17.0,77,0.00,,,0.00,Weather View 32 v70,2013-04-24 14:40:00,
2013-04-24 10:45:00,55.0,48.9,29.43,ENE,67,6.0,17.0,80,0.00,,,0.00,Weather View 32 v70,2013-04-24 14:45:00,
2013-04-24 10:50:00,55.0,48.6,29.43,NE,45,1.0,17.0,79,0.00,,,0.00,Weather View 32 v70,2013-04-24 14:50:00,
2013-04-24 11:00:00,57.0,49.5,29.43,East,90,4.0,12.0,76,0.00,,,0.00,Weather View 32 v70,2013-04-24 15:00:00,
2013-04-24 11:05:00,58.0,50.8,29.43,SE,135,8.0,12.0,77,0.00,,,0.00,Weather View 32 v70,2013-04-24 15:05:00,
2013-04-24 11:10:00,58.0,50.1,29.43,NE,45,7.0,12.0,75,0.00,,,0.00,Weather View 32 v70,2013-04-24 15:10:00,
2013-04-24 11:15:00,57.0,50.2,29.43,NE,45,9.0,13.0,78,0.00,,,0.00,Weather View 32 v70,2013-04-24 15:15:00,
2013-04-24 11:20:00,58.0,51.2,29.43,East,90,3.0,13.0,78,0.00,,,0.00,Weather View 32 v70,2013-04-24 15:20:00,
2013-04-24 11:30:00,60.0,51.7,29.42,NE,45,8.0,13.0,74,0.00,,,0.00,Weather View 32 v70,2013-04-24 15:30:00,
2013-04-24 11:35:00,59.0,50.3,29.42,SSE,157,3.0,13.0,73,0.00,,,0.00,Weather View 32 v70,2013-04-24 15:35:00,
2013-04-24 11:40:00,60.0,51.7,29.42,SE,135,5.0,13.0,74,0.00,,,0.00,Weather View 32 v70,2013-04-24 15:40:00,
2013-04-24 11:45:00,60.0,51.3,29.41,NE,45,8.0,14.0,73,0.00,,,0.00,Weather View 32 v70,2013-04-24 15:45:00,
2013-04-24 11:50:00,60.0,51.7,29.41,ENE,67,8.0,14.0,74,0.00,,,0.00,Weather View 32 v70,2013-04-24 15:50:00,
2013-04-24 11:55:00,61.0,52.3,29.41,South,180,1.0,14.0,73,0.00,,,0.00,Weather View 32 v70,2013-04-24 15:55:00,
2013-04-24 12:00:00,61.0,51.1,29.41,ESE,112,6.0,14.0,70,0.00,,,0.00,Weather View 32 v70,2013-04-24 16:00:00,
2013-04-24 12:05:00,61.0,51.9,29.40,North,360,3.0,14.0,72,0.00,,,0.00,Weather View 32 v70,2013-04-24 16:05:00,
2013-04-24 12:15:00,62.0,52.5,29.40,SE,135,9.0,17.0,71,0.00,,,0.00,Weather View 32 v70,2013-04-24 16:15:00,
2013-04-24 12:25:00,62.0,52.1,29.39,SSE,157,7.0,17.0,70,0.00,,,0.00,Weather View 32 v70,2013-04-24 16:25:00,
2013-04-24 12:35:00,63.0,52.6,29.38,ENE,67,2.0,17.0,69,0.00,,,0.00,Weather View 32 v70,2013-04-24 16:35:00,
2013-04-24 12:40:00,63.0,52.2,29.38,South,180,6.0,17.0,68,0.00,,,0.00,Weather View 32 v70,2013-04-24 16:40:00,
2013-04-24 12:45:00,63.0,51.8,29.38,ENE,67,9.0,17.0,67,0.00,,,0.00,Weather View 32 v70,2013-04-24 16:45:00,
2013-04-24 12:50:00,63.0,52.2,29.37,SSE,157,12.0,17.0,68,0.00,,,0.00,Weather View 32 v70,2013-04-24 16:50:00,
2013-04-24 12:55:00,64.0,52.8,29.37,SE,135,9.0,17.0,67,0.00,,,0.00,Weather View 32 v70,2013-04-24 16:55:00,
2013-04-24 13:00:00,64.0,51.5,29.36,SE,135,6.0,17.0,64,0.00,,,0.00,Weather View 32 v70,2013-04-24 17:00:00,
2013-04-24 13:10:00,66.0,53.4,29.36,SSW,202,5.0,16.0,64,0.00,,,0.00,Weather View 32 v70,2013-04-24 17:10:00,
2013-04-24 13:15:00,66.0,53.9,29.36,South,180,8.0,16.0,65,0.00,,,0.00,Weather View 32 v70,2013-04-24 17:15:00,
2013-04-24 13:20:00,66.0,52.6,29.35,SSE,157,6.0,16.0,62,0.00,,,0.00,Weather View 32 v70,2013-04-24 17:20:00,
2013-04-24 13:25:00,66.0,53.0,29.35,SSW,202,11.0,15.0,63,0.00,,,0.00,Weather View 32 v70,2013-04-24 17:25:00,
2013-04-24 13:30:00,66.0,51.7,29.35,SSW,202,10.0,15.0,60,0.00,,,0.00,Weather View 32 v70,2013-04-24 17:30:00,
2013-04-24 13:35:00,67.0,52.6,29.35,SE,135,8.0,15.0,60,0.00,,,0.00,Weather View 32 v70,2013-04-24 17:35:00,
2013-04-24 13:40:00,67.0,53.5,29.34,South,180,16.0,17.0,62,0.00,,,0.00,Weather View 32 v70,2013-04-24 17:40:00,
2013-04-24 13:45:00,67.0,52.6,29.34,SE,135,7.0,17.0,60,0.00,,,0.00,Weather View 32 v70,2013-04-24 17:45:00,
2013-04-24 13:50:00,67.0,52.6,29.34,WNW,292,2.0,17.0,60,0.00,,,0.00,Weather View 32 v70,2013-04-24 17:50:00,
2013-04-24 14:00:00,68.0,54.0,29.33,SSE,157,14.0,17.0,61,0.00,,,0.00,Weather View 32 v70,2013-04-24 18:00:00,
2013-04-24 14:05:00,68.0,54.0,29.34,South,180,10.0,17.0,61,0.00,,,0.00,Weather View 32 v70,2013-04-24 18:05:00,
2013-04-24 14:10:00,69.0,55.0,29.33,SSW,202,7.0,17.0,61,0.00,,,0.00,Weather View 32 v70,2013-04-24 18:10:00,
2013-04-24 14:15:00,68.0,54.0,29.33,SSE,157,7.0,17.0,61,0.00,,,0.00,Weather View 32 v70,2013-04-24 18:15:00,
2013-04-24 14:20:00,69.0,54.5,29.33,SE,135,10.0,17.0,60,0.00,,,0.00,Weather View 32 v70,2013-04-24 18:20:00,
2013-04-24 14:25:00,69.0,54.5,29.33,SE,135,6.0,17.0,60,0.00,,,0.00,Weather View 32 v70,2013-04-24 18:25:00,
2013-04-24 14:30:00,69.0,54.0,29.33,SE,135,9.0,18.0,59,0.00,,,0.00,Weather View 32 v70,2013-04-24 18:30:00,
2013-04-24 14:35:00,69.0,53.6,29.33,SSE,157,12.0,18.0,58,0.00,,,0.00,Weather View 32 v70,2013-04-24 18:35:00,
2013-04-24 14:40:00,70.0,55.4,29.32,SE,135,14.0,19.0,60,0.00,,,0.00,Weather View 32 v70,2013-04-24 18:40:00,
2013-04-24 14:45:00,70.0,53.5,29.32,SSE,157,13.0,19.0,56,0.00,,,0.00,Weather View 32 v70,2013-04-24 18:45:00,
2013-04-24 14:52:00,70.0,53.5,29.33,SE,135,10.0,22.0,56,0.00,,,0.00,Weather View 32 v70,2013-04-24 18:52:00,
2013-04-24 15:00:00,70.0,55.4,29.32,SSW,202,7.0,22.0,60,0.00,,,0.00,Weather View 32 v70,2013-04-24 19:00:00,
2013-04-24 15:05:00,71.0,54.5,29.31,SSE,157,5.0,22.0,56,0.00,,,0.00,Weather View 32 v70,2013-04-24 19:05:00,
2013-04-24 15:10:00,71.0,54.0,29.32,South,180,7.0,22.0,55,0.00,,,0.00,Weather View 32 v70,2013-04-24 19:10:00,
2013-04-24 15:15:00,70.0,53.0,29.32,NE,45,11.0,22.0,55,0.00,,,0.00,Weather View 32 v70,2013-04-24 19:15:00,
2013-04-24 15:20:00,71.0,55.4,29.31,SE,135,11.0,22.0,58,0.00,,,0.00,Weather View 32 v70,2013-04-24 19:20:00,
2013-04-24 15:25:00,71.0,54.5,29.30,SSE,157,9.0,22.0,56,0.00,,,0.00,Weather View 32 v70,2013-04-24 19:25:00,
2013-04-24 15:30:00,71.0,54.5,29.30,SE,135,9.0,22.0,56,0.00,,,0.00,Weather View 32 v70,2013-04-24 19:30:00,
2013-04-24 15:35:00,71.0,54.0,29.30,SE,135,6.0,22.0,55,0.00,,,0.00,Weather View 32 v70,2013-04-24 19:35:00,
2013-04-24 15:45:00,72.0,54.4,29.28,SSE,157,7.0,22.0,54,0.00,,,0.00,Weather View 32 v70,2013-04-24 19:45:00,
2013-04-24 15:50:00,71.0,54.0,29.28,SE,135,10.0,22.0,55,0.00,,,0.00,Weather View 32 v70,2013-04-24 19:50:00,
2013-04-24 15:55:00,71.0,54.0,29.28,SSE,157,12.0,22.0,55,0.00,,,0.00,Weather View 32 v70,2013-04-24 19:55:00,
2013-04-24 16:00:00,71.0,54.0,29.27,South,180,7.0,22.0,55,0.00,,,0.00,Weather View 32 v70,2013-04-24 20:00:00,
2013-04-24 16:05:00,71.0,54.0,29.27,ESE,112,14.0,22.0,55,0.00,,,0.00,Weather View 32 v70,2013-04-24 20:05:00,
2013-04-24 16:10:00,71.0,54.0,29.27,SSE,157,10.0,22.0,55,0.00,,,0.00,Weather View 32 v70,2013-04-24 20:10:00,
2013-04-24 16:15:00,71.0,54.0,29.26,East,90,6.0,19.0,55,0.00,,,0.00,Weather View 32 v70,2013-04-24 20:15:00,
2013-04-24 16:20:00,72.0,54.4,29.26,SSE,157,20.0,20.0,54,0.00,,,0.00,Weather View 32 v70,2013-04-24 20:20:00,
2013-04-24 16:30:00,72.0,52.3,29.25,SSE,157,16.0,26.0,50,0.00,,,0.00,Weather View 32 v70,2013-04-24 20:30:00,
2013-04-24 16:35:00,72.0,52.3,29.25,East,90,9.0,27.0,50,0.00,,,0.00,Weather View 32 v70,2013-04-24 20:35:00,
2013-04-24 16:45:00,72.0,51.7,29.24,SSE,157,15.0,27.0,49,0.00,,,0.00,Weather View 32 v70,2013-04-24 20:45:00,
2013-04-24 16:50:00,73.0,52.1,29.24,SE,135,15.0,27.0,48,0.00,,,0.00,Weather View 32 v70,2013-04-24 20:50:00,
2013-04-24 16:55:00,73.0,52.1,29.24,SE,135,21.0,27.0,48,0.00,,,0.00,Weather View 32 v70,2013-04-24 20:55:00,
2013-04-24 17:00:00,73.0,52.1,29.23,South,180,10.0,27.0,48,0.00,,,0.00,Weather View 32 v70,2013-04-24 21:00:00,
2013-04-24 17:05:00,73.0,52.1,29.23,South,180,9.0,27.0,48,0.00,,,0.00,Weather View 32 v70,2013-04-24 21:05:00,
2013-04-24 17:10:00,73.0,52.1,29.23,SE,135,18.0,27.0,48,0.00,,,0.00,Weather View 32 v70,2013-04-24 21:10:00,
2013-04-24 17:15:00,73.0,52.7,29.22,SSE,157,3.0,27.0,49,0.00,,,0.00,Weather View 32 v70,2013-04-24 21:15:00,
2013-04-24 17:20:00,73.0,52.7,29.22,SE,135,8.0,27.0,49,0.00,,,0.00,Weather View 32 v70,2013-04-24 21:20:00,
2013-04-24 17:30:00,73.0,52.1,29.22,South,180,12.0,29.0,48,0.00,,,0.00,Weather View 32 v70,2013-04-24 21:30:00,
2013-04-24 17:35:00,73.0,53.2,29.22,SSE,157,15.0,29.0,50,0.00,,,0.00,Weather View 32 v70,2013-04-24 21:35:00,
2013-04-24 17:40:00,73.0,52.1,29.23,SE,135,22.0,29.0,48,0.00,,,0.00,Weather View 32 v70,2013-04-24 21:40:00,
2013-04-24 17:45:00,73.0,52.7,29.24,SE,135,13.0,29.0,49,0.00,,,0.00,Weather View 32 v70,2013-04-24 21:45:00,
2013-04-24 17:50:00,73.0,52.7,29.23,SSE,157,9.0,29.0,49,0.00,,,0.00,Weather View 32 v70,2013-04-24 21:50:00,
2013-04-24 17:55:00,73.0,52.1,29.24,South,180,13.0,29.0,48,0.00,,,0.00,Weather View 32 v70,2013-04-24 21:55:00,
2013-04-24 18:00:00,73.0,52.1,29.26,South,180,10.0,29.0,48,0.00,,,0.00,Weather View 32 v70,2013-04-24 22:00:00,
2013-04-24 18:05:00,73.0,52.1,29.25,SE,135,9.0,29.0,48,0.00,,,0.00,Weather View 32 v70,2013-04-24 22:05:00,
2013-04-24 18:15:00,72.0,55.9,29.29,WSW,247,20.0,34.0,57,0.00,,,0.00,Weather View 32 v70,2013-04-24 22:15:00,
2013-04-24 18:20:00,69.0,58.0,29.30,West,270,12.0,34.0,68,0.00,,,0.00,Weather View 32 v70,2013-04-24 22:20:00,
2013-04-24 18:30:00,66.0,58.2,29.30,SW,225,10.0,34.0,76,0.00,,,0.00,Weather View 32 v70,2013-04-24 22:30:00,
2013-04-24 18:35:00,65.0,57.2,29.30,West,270,8.0,34.0,76,0.00,,,0.00,Weather View 32 v70,2013-04-24 22:35:00,
2013-04-24 18:40:00,65.0,57.6,29.29,West,270,7.0,34.0,77,0.00,,,0.00,Weather View 32 v70,2013-04-24 22:40:00,
2013-04-24 18:45:00,65.0,57.6,29.29,West,270,10.0,34.0,77,0.00,,,0.00,Weather View 32 v70,2013-04-24 22:45:00,
2013-04-24 18:50:00,65.0,58.3,29.29,SW,225,11.0,34.0,79,0.00,,,0.00,Weather View 32 v70,2013-04-24 22:50:00,
2013-04-24 18:55:00,65.0,58.7,29.29,WSW,247,6.0,34.0,80,0.00,,,0.00,Weather View 32 v70,2013-04-24 22:55:00,
2013-04-24 19:00:00,64.0,58.4,29.28,West,270,10.0,34.0,82,0.00,,,0.00,Weather View 32 v70,2013-04-24 23:00:00,
2013-04-24 19:05:00,64.0,59.1,29.29,SW,225,13.0,34.0,84,0.00,,,0.00,Weather View 32 v70,2013-04-24 23:05:00,
2013-04-24 19:10:00,63.0,58.4,29.30,SW,225,9.0,34.0,85,0.00,,,0.00,Weather View 32 v70,2013-04-24 23:10:00,
2013-04-24 19:20:00,63.0,59.4,29.31,South,180,6.0,29.0,88,0.01,,,0.01,Weather View 32 v70,2013-04-24 23:20:00,
2013-04-24 19:25:00,62.0,59.6,29.30,SE,135,10.0,23.0,92,0.02,,,0.02,Weather View 32 v70,2013-04-24 23:25:00,
2013-04-24 19:30:00,62.0,59.6,29.30,SSE,157,6.0,20.0,92,0.03,,,0.03,Weather View 32 v70,2013-04-24 23:30:00,
2013-04-24 19:35:00,62.0,60.2,29.29,SSE,157,7.0,20.0,94,0.03,,,0.03,Weather View 32 v70,2013-04-24 23:35:00,
2013-04-24 19:40:00,61.0,59.3,29.30,South,180,6.0,20.0,94,0.03,,,0.03,Weather View 32 v70,2013-04-24 23:40:00,
2013-04-24 19:45:00,61.0,59.3,29.29,South,180,6.0,20.0,94,0.03,,,0.03,Weather View 32 v70,2013-04-24 23:45:00,
2013-04-24 19:50:00,62.0,60.2,29.30,SSE,157,7.0,20.0,94,0.03,,,0.03,Weather View 32 v70,2013-04-24 23:50:00,
2013-04-24 19:55:00,62.0,60.2,29.30,SSW,202,6.0,20.0,94,0.03,,,0.03,Weather View 32 v70,2013-04-24 23:55:00,
2013-04-24 20:05:00,62.0,59.6,29.30,SE,135,9.0,20.0,92,0.04,,,0.04,Weather View 32 v70,2013-04-25 00:05:00,
2013-04-24 20:15:00,62.0,59.0,29.30,SSW,202,6.0,19.0,90,0.04,,,0.04,Weather View 32 v70,2013-04-25 00:15:00,
2013-04-24 20:20:00,62.0,59.0,29.30,South,180,6.0,15.0,90,0.03,,,0.04,Weather View 32 v70,2013-04-25 00:20:00,
2013-04-24 20:25:00,62.0,58.7,29.30,South,180,10.0,15.0,89,0.02,,,0.04,Weather View 32 v70,2013-04-25 00:25:00,
2013-04-24 20:30:00,62.0,57.8,29.30,SW,225,9.0,15.0,86,0.01,,,0.04,Weather View 32 v70,2013-04-25 00:30:00,
2013-04-24 20:35:00,63.0,58.4,29.30,SSW,202,8.0,15.0,85,0.01,,,0.04,Weather View 32 v70,2013-04-25 00:35:00,
2013-04-24 20:40:00,63.0,58.4,29.30,South,180,6.0,15.0,85,0.01,,,0.04,Weather View 32 v70,2013-04-25 00:40:00,
2013-04-24 20:45:00,63.0,58.4,29.31,SSW,202,6.0,15.0,85,0.01,,,0.04,Weather View 32 v70,2013-04-25 00:45:00,
2013-04-24 20:55:00,62.0,57.8,29.31,SW,225,12.0,23.0,86,0.02,,,0.05,Weather View 32 v70,2013-04-25 00:55:00,
2013-04-24 21:00:00,62.0,57.8,29.31,SSW,202,6.0,23.0,86,0.01,,,0.05,Weather View 32 v70,2013-04-25 01:00:00,
2013-04-24 21:10:00,62.0,57.4,29.32,SSW,202,7.0,23.0,85,0.01,,,0.05,Weather View 32 v70,2013-04-25 01:10:00,
2013-04-24 21:15:00,62.0,57.1,29.32,South,180,3.0,23.0,84,0.01,,,0.05,Weather View 32 v70,2013-04-25 01:15:00,
2013-04-24 21:20:00,62.0,57.1,29.32,South,180,6.0,23.0,84,0.01,,,0.05,Weather View 32 v70,2013-04-25 01:20:00,
2013-04-24 21:25:00,62.0,57.1,29.32,SSE,157,4.0,23.0,84,0.01,,,0.05,Weather View 32 v70,2013-04-25 01:25:00,
2013-04-24 21:30:00,62.0,57.1,29.32,ESE,112,2.0,23.0,84,0.01,,,0.05,Weather View 32 v70,2013-04-25 01:30:00,
2013-04-24 21:35:00,62.0,57.4,29.32,ESE,112,3.0,23.0,85,0.01,,,0.05,Weather View 32 v70,2013-04-25 01:35:00,
2013-04-24 21:40:00,62.0,57.1,29.33,SSE,157,4.0,23.0,84,0.01,,,0.05,Weather View 32 v70,2013-04-25 01:40:00,
2013-04-24 21:45:00,62.0,56.4,29.33,SE,135,8.0,23.0,82,0.01,,,0.05,Weather View 32 v70,2013-04-25 01:45:00,
2013-04-24 21:50:00,63.0,56.7,29.33,SE,135,4.0,23.0,80,0.01,,,0.05,Weather View 32 v70,2013-04-25 01:50:00,
2013-04-24 21:55:00,63.0,56.0,29.34,SW,225,6.0,16.0,78,0.00,,,0.05,Weather View 32 v70,2013-04-25 01:55:00,
2013-04-24 22:05:00,64.0,56.6,29.35,NW,315,13.0,21.0,77,0.00,,,0.05,Weather View 32 v70,2013-04-25 02:05:00,
2013-04-24 22:10:00,60.0,53.8,29.38,WSW,247,23.0,27.0,80,0.00,,,0.05,Weather View 32 v70,2013-04-25 02:10:00,
2013-04-24 22:15:00,58.0,53.2,29.38,WSW,247,13.0,27.0,84,0.01,,,0.06,Weather View 32 v70,2013-04-25 02:15:00,
2013-04-24 22:20:00,58.0,52.5,29.40,SSW,202,14.0,27.0,82,0.01,,,0.06,Weather View 32 v70,2013-04-25 02:20:00,
2013-04-24 22:25:00,58.0,51.2,29.40,West,270,12.0,27.0,78,0.01,,,0.06,Weather View 32 v70,2013-04-25 02:25:00,
2013-04-24 22:30:00,58.0,50.5,29.40,WSW,247,15.0,28.0,76,0.01,,,0.06,Weather View 32 v70,2013-04-25 02:30:00,
2013-04-24 22:35:00,58.0,49.7,29.41,West,270,17.0,28.0,74,0.01,,,0.06,Weather View 32 v70,2013-04-25 02:35:00,
2013-04-24 22:40:00,57.0,48.8,29.42,West,270,28.0,28.0,74,0.01,,,0.06,Weather View 32 v70,2013-04-25 02:40:00,
2013-04-24 22:45:00,57.0,48.4,29.42,West,270,22.0,35.0,73,0.02,,,0.07,Weather View 32 v70,2013-04-25 02:45:00,
2013-04-24 22:50:00,57.0,47.3,29.43,SW,225,19.0,35.0,70,0.02,,,0.07,Weather View 32 v70,2013-04-25 02:50:00,
2013-04-24 22:57:00,57.0,47.3,29.43,WNW,292,6.0,35.0,70,0.02,,,0.07,Weather View 32 v70,2013-04-25 02:57:00,
2013-04-24 23:05:00,56.0,46.7,29.44,WSW,247,14.0,35.0,71,0.02,,,0.07,Weather View 32 v70,2013-04-25 03:05:00,
2013-04-24 23:10:00,55.0,45.0,29.44,SW,225,10.0,40.0,69,0.02,,,0.07,Weather View 32 v70,2013-04-25 03:10:00,
2013-04-24 23:15:00,54.0,44.0,29.44,WSW,247,12.0,40.0,69,0.01,,,0.07,Weather View 32 v70,2013-04-25 03:15:00,
2013-04-24 23:20:00,53.0,42.7,29.45,West,270,30.0,40.0,68,0.01,,,0.07,Weather View 32 v70,2013-04-25 03:20:00,
2013-04-24 23:25:00,53.0,42.7,29.44,West,270,22.0,40.0,68,0.01,,,0.07,Weather View 32 v70,2013-04-25 03:25:00,
2013-04-24 23:30:00,52.0,42.5,29.46,WSW,247,15.0,40.0,70,0.01,,,0.07,Weather View 32 v70,2013-04-25 03:30:00,
2013-04-24 23:40:00,52.0,41.0,29.45,WSW,247,20.0,40.0,66,0.01,,,0.07,Weather View 32 v70,2013-04-25 03:40:00,
2013-04-24 23:50:00,52.0,41.4,29.46,West,270,22.0,40.0,67,0.00,,,0.07,Weather View 32 v70,2013-04-25 03:50:00,
2013-04-24 23:55:00,51.0,40.4,29.46,West,270,21.0,40.0,67,0.00,,,0.07,Weather View 32 v70,2013-04-25 03:55:00,